{"data":{"norad_id":48562,"intl_designator":"2021-041K","name":"STARLINK-2187","alt_names":[],"object_type":"PAYLOAD","status":"ACTIVE","operator":null,"country":"US","launch_date":"2021-05-15","launch_site_code":"AFETR","launch_vehicle":null,"mission":null,"orbit_class":"UNKNOWN","rcs_meters":null,"size_class":null,"mass_kg":null,"dimensions":null,"purposes":["comms"],"wikipedia_slug":null,"has_3d_model":false,"image_url":null,"decayed_at":null,"tle_current":{"epoch":"2026-05-25T02:42:39.026880Z","epoch_age_seconds":59217,"freshness":"FRESH","line1":"1 48562U 21041K   26145.11295170  .00054674  00000+0  11269-2 0  9993","line2":"2 48562  53.1558 125.8332 0007152  37.9919 322.1592 15.45374384277061","mean_motion":15.45374384,"eccentricity":0.0007152,"inclination_deg":53.1558,"raan_deg":125.8332,"arg_perigee_deg":37.9919,"mean_anomaly_deg":322.1592,"bstar":0.0011269,"rev_number":27706,"period_min":93.181303825727,"perigee_km":425.40886236548,"apogee_km":435.14761952612,"semimajor_km":6808.4152409458,"source":"CELESTRAK","updated_at":"2026-05-25T13:38:16.725433Z"}}}